When you browse on this site, cookies collect data to enhance your experience and personalize the content and advertising you see.
Visit our Privacy Policy to learn more. By continuing to use the site, you agree to this use of cookies and data.
  • In Hungary
  • List of Countries
  • For 7 days
  • Water Temperature
  • Satellite Maps
  • Weather Map
  • News
  • Weather Widgets
  • user-avatar
    Login

    Hourly Weather Galla

    Today, 16 December, Sunday

    Time Temperature Precipitation Wind Pressure Humidity
    00:00 +26°C° 0 mm 5 mps 758 mmHg 85%
    01:00 +26°C° 0 mm 5 mps 758 mmHg 85%
    02:00 +26°C° 0 mm 5 mps 758 mmHg 85%
    03:00 +25°C° 0 mm 5 mps 758 mmHg 85%
    04:00 +25°C° 0 mm 5 mps 758 mmHg 85%
    05:00 +25°C° 0 mm 4 mps 758 mmHg 86%
    06:00 +26°C° 0 mm 4 mps 758 mmHg 80%
    07:00 +27°C° 0 mm 5 mps 758 mmHg 75%
    08:00 +29°C° 0 mm 5 mps 759 mmHg 69%
    09:00 +30°C° 0 mm 5 mps 758 mmHg 63%
    10:00 +33°C° 0 mm 5 mps 758 mmHg 57%
    11:00 +34°C° 0 mm 5 mps 758 mmHg 52%
    12:00 +35°C° 0 mm 5 mps 758 mmHg 51%
    13:00 +35°C° 0 mm 5 mps 757 mmHg 49%
    14:00 +35°C° 0 mm 5 mps 757 mmHg 48%
    15:00 +34°C° 0 mm 5 mps 757 mmHg 56%
    16:00 +32°C° 0 mm 5 mps 757 mmHg 63%
    17:00 +30°C° 0 mm 4 mps 757 mmHg 71%
    18:00 +29°C° 0 mm 4 mps 757 mmHg 76%
    19:00 +28°C° 0 mm 4 mps 758 mmHg 80%
    20:00 +27°C° 0 mm 4 mps 758 mmHg 85%
    21:00 +26°C° 0 mm 3 mps 758 mmHg 86%
    22:00 +26°C° 0 mm 3 mps 758 mmHg 87%
    23:00 +26°C° 0 mm 3 mps 759 mmHg 89%

    Tomorrow, 17 December, Monday

    Time Temperature Precipitation Wind Pressure Humidity
    00:00 +25°C° 0 mm 3 mps 758 mmHg 89%
    01:00 +25°C° 0 mm 2 mps 758 mmHg 89%
    02:00 +25°C° 0 mm 2 mps 758 mmHg 89%
    03:00 +25°C° 0 mm 2 mps 758 mmHg 89%
    04:00 +25°C° 0 mm 2 mps 758 mmHg 88%
    05:00 +25°C° 0 mm 1 mps 758 mmHg 88%
    06:00 +26°C° 0 mm 1 mps 759 mmHg 81%
    07:00 +28°C° 0 mm 1 mps 759 mmHg 74%
    08:00 +29°C° 0 mm 1 mps 759 mmHg 67%
    09:00 +31°C° 0 mm 1 mps 759 mmHg 60%
    10:00 +32°C° 0 mm 1 mps 759 mmHg 53%
    11:00 +34°C° 0 mm 1 mps 759 mmHg 46%
    12:00 +35°C° 0 mm 2 mps 758 mmHg 48%
    13:00 +34°C° 0 mm 2 mps 758 mmHg 51%
    14:00 +34°C° 0 mm 3 mps 757 mmHg 53%
    15:00 +33°C° 0 mm 3 mps 757 mmHg 60%
    16:00 +30°C° 0 mm 3 mps 757 mmHg 67%
    17:00 +29°C° 0 mm 3 mps 757 mmHg 74%
    18:00 +28°C° 0 mm 2 mps 758 mmHg 78%
    19:00 +27°C° 0 mm 2 mps 759 mmHg 81%
    20:00 +27°C° 0 mm 1 mps 759 mmHg 85%
    21:00 +26°C° 0 mm 1 mps 759 mmHg 86%
    22:00 +26°C° 0 mm 1 mps 759 mmHg 88%
    23:00 +26°C° 0 mm 1 mps 760 mmHg 89%

    Day after tomorrow, 18 December, Tuesday

    Time Temperature Precipitation Wind Pressure Humidity
    00:00 +26°C° 0 mm 1 mps 759 mmHg 90%
    01:00 +26°C° 0 mm 1 mps 759 mmHg 91%
    02:00 +26°C° 0 mm 1 mps 758 mmHg 91%
    03:00 +25°C° 0 mm 1 mps 758 mmHg 92%
    04:00 +25°C° 0 mm 1 mps 758 mmHg 92%
    05:00 +25°C° 0 mm 2 mps 758 mmHg 93%
    06:00 +27°C° 0 mm 1 mps 759 mmHg 86%
    07:00 +28°C° 0 mm 1 mps 759 mmHg 79%
    08:00 +30°C° 0 mm 1 mps 760 mmHg 72%
    09:00 +31°C° 0 mm 1 mps 759 mmHg 66%
    10:00 +33°C° 0 mm 1 mps 759 mmHg 60%
    11:00 +34°C° 0 mm 1 mps 759 mmHg 53%
    12:00 +35°C° 0 mm 2 mps 758 mmHg 55%
    13:00 +35°C° 0 mm 2 mps 757 mmHg 56%
    14:00 +34°C° 0 mm 3 mps 756 mmHg 58%
    15:00 +33°C° 0 mm 3 mps 757 mmHg 64%
    16:00 +31°C° 0 mm 2 mps 757 mmHg 70%
    17:00 +30°C° 0 mm 2 mps 757 mmHg 77%
    18:00 +29°C° 0 mm 2 mps 757 mmHg 80%
    19:00 +28°C° 0 mm 1 mps 758 mmHg 83%
    20:00 +28°C° 0 mm 1 mps 759 mmHg 85%
    21:00 +28°C° 0 mm 1 mps 759 mmHg 86%
    22:00 +25°C° 0 mm 0 mps 759 mmHg 87%
    23:00 +25°C° 0 mm 0 mps 759 mmHg 88%

    19 December, Wednesday

    Time Temperature Precipitation Wind Pressure Humidity
    00:00 +25°C° 0 mm 0 mps 758 mmHg 89%
    01:00 +25°C° 0 mm 0 mps 758 mmHg 90%
    02:00 +27°C° 0 mm 1 mps 757 mmHg 91%
    03:00 +24°C° 0 mm 0 mps 757 mmHg 91%
    04:00 +24°C° 0 mm 0 mps 758 mmHg 92%
    05:00 +24°C° 0 mm 0 mps 758 mmHg 92%
    06:00 +25°C° 0 mm 0 mps 758 mmHg 87%
    07:00 +26°C° 0 mm 0 mps 759 mmHg 82%
    08:00 +28°C° 0 mm 0 mps 759 mmHg 78%
    09:00 +30°C° 0 mm 1 mps 759 mmHg 73%
    10:00 +31°C° 0 mm 1 mps 759 mmHg 69%
    11:00 +32°C° 0 mm 1 mps 759 mmHg 65%
    12:00 +32°C° 0 mm 1 mps 758 mmHg 66%
    13:00 +32°C° 0 mm 2 mps 757 mmHg 67%
    14:00 +32°C° 0 mm 2 mps 756 mmHg 68%
    15:00 +31°C° 0 mm 2 mps 756 mmHg 72%
    16:00 +30°C° 0 mm 2 mps 756 mmHg 76%
    17:00 +29°C° 0 mm 2 mps 757 mmHg 80%
    18:00 +29°C° 0 mm 2 mps 757 mmHg 82%
    19:00 +28°C° 0 mm 2 mps 758 mmHg 84%
    20:00 +28°C° 0 mm 1 mps 759 mmHg 86%
    21:00 +28°C° 0 mm 1 mps 759 mmHg 87%
    22:00 +27°C° 0 mm 1 mps 759 mmHg 88%
    23:00 +27°C° 0 mm 1 mps 759 mmHg 89%

    20 December, Thursday

    Time Temperature Precipitation Wind Pressure Humidity
    00:00 +27°C° 0.1 mm 1 mps 759 mmHg 89%
    01:00 +27°C° 0.1 mm 1 mps 758 mmHg 90%
    02:00 +27°C° 0.1 mm 1 mps 758 mmHg 90%
    03:00 +27°C° 0 mm 1 mps 758 mmHg 91%
    04:00 +26°C° 0 mm 1 mps 758 mmHg 91%
    05:00 +26°C° 0 mm 2 mps 758 mmHg 92%
    06:00 +27°C° 0 mm 2 mps 758 mmHg 88%
    07:00 +28°C° 0 mm 2 mps 759 mmHg 84%
    08:00 +29°C° 0 mm 2 mps 760 mmHg 80%
    09:00 +30°C° 0 mm 2 mps 759 mmHg 75%
    10:00 +31°C° 0 mm 2 mps 759 mmHg 71%
    11:00 +32°C° 0 mm 2 mps 759 mmHg 67%
    12:00 +33°C° 0 mm 3 mps 758 mmHg 68%
    13:00 +31°C° 0 mm 3 mps 757 mmHg 69%
    14:00 +31°C° 0 mm 3 mps 756 mmHg 71%
    15:00 +30°C° 0.1 mm 3 mps 756 mmHg 74%
    16:00 +30°C° 0.1 mm 3 mps 757 mmHg 78%
    17:00 +29°C° 0.1 mm 3 mps 757 mmHg 81%
    18:00 +28°C° 0 mm 3 mps 757 mmHg 83%
    19:00 +28°C° 0 mm 2 mps 758 mmHg 86%
    20:00 +27°C° 0 mm 2 mps 759 mmHg 88%
    21:00 +27°C° 0 mm 2 mps 759 mmHg 88%
    22:00 +27°C° 0 mm 2 mps 759 mmHg 89%
    23:00 +27°C° 0 mm 1 mps 758 mmHg 90%

    21 December, Friday

    Time Temperature Precipitation Wind Pressure Humidity
    00:00 +27°C° 0 mm 1 mps 758 mmHg 90%
    01:00 +26°C° 0 mm 1 mps 757 mmHg 90%
    02:00 +26°C° 0 mm 1 mps 757 mmHg 90%
    03:00 +26°C° 0 mm 1 mps 757 mmHg 90%
    04:00 +26°C° 0 mm 1 mps 757 mmHg 90%
    05:00 +26°C° 0 mm 1 mps 757 mmHg 90%
    06:00 +27°C° 0 mm 1 mps 758 mmHg 87%
    07:00 +28°C° 0 mm 1 mps 759 mmHg 84%
    08:00 +29°C° 0 mm 1 mps 759 mmHg 81%
    09:00 +30°C° 0 mm 1 mps 759 mmHg 76%
    10:00 +31°C° 0 mm 2 mps 759 mmHg 70%
    11:00 +32°C° 0 mm 2 mps 759 mmHg 65%
    12:00 +32°C° 0 mm 2 mps 758 mmHg 66%
    13:00 +31°C° 0 mm 2 mps 757 mmHg 67%
    14:00 +31°C° 0 mm 2 mps 757 mmHg 67%
    15:00 +31°C° 0 mm 2 mps 757 mmHg 72%
    16:00 +30°C° 0 mm 2 mps 757 mmHg 76%
    17:00 +29°C° 0 mm 2 mps 757 mmHg 80%
    18:00 +28°C° 0 mm 2 mps 758 mmHg 83%
    19:00 +28°C° 0 mm 1 mps 758 mmHg 86%
    20:00 +27°C° 0 mm 1 mps 759 mmHg 89%
    21:00 +27°C° 0 mm 1 mps 759 mmHg 89%
    22:00 +27°C° 0 mm 1 mps 759 mmHg 90%
    23:00 +26°C° 0 mm 1 mps 758 mmHg 91%
    Show more